Terminal Aerodrome Forecast
Issued by NWS Atlanta, GA

Home | Current Version | Previous Version | Text Only | Print | Product List | Glossary On
Versions: 1 2 3 4 5 6 7 8 9 10 11 12 13 14 15 16 17 18 19 20 21 22 23 24 25 26 27 28 29 30 31 32 33 34 35 36 37 38 39 40 41 42 43 44 45 46 47 48 49 50
000
FTAK31 PAJK 311139
TAFAHN
TAF
PAHN 311139Z 3112/0112 09014G25KT 6SM -RA BR SCT007 OVC015
      WS020/20035KT
     FM311800 11020G30KT 5SM -RA BR OVC015 WS020/20035KT
     FM010300 32015G25KT P6SM VCSH OVC025
     AMD LTD TO CLD VIS AND WIND=

USA.gov is the U.S. government's official web portal to all federal, state and local government web resources and services.